Observer details:
033 Karl Schwarzschild Observatory, Tautenburg.  Observers S. Melnikov, C.
    Hoegner, U. Laux, F. Ludwig, B. Stecklum.  Measurer B. Stecklum.  1.34-m
    f/3 Schmidt + CCD.
118 Astronomical and Geophysical Observatory, Modra.  Observer S. Gajdos.
    0.6-m f/5.5 reflector + CCD.
204 Schiaparelli Observatory.  Observer L. Buzzi.  Measurer A. Aletti.  0.84-m
    f/3.5 reflector + CCD.
215 Buchloe.  Observer W. Hasubick.  0.44-m f/4.6 reflector + CCD.
291 LPL/Spacewatch II.  Observer J. V. Scotti.  1.8-m f/2.7 reflector + CCD.
595 Farra d'Isonzo.  Observers S. Aschi, E. Pettarin.  Measurer E. Pettarin.
    0.61-m f/4.5 reflector + CCD.
858 Tebbutt Observatory, Edgewood.  Observer F. B. Zoltowski.  0.16-m
    refractor + CCD.
B96 Brixiis Observatory, Kruibeke.  Observer E. Bryssinck.  0.4-m f/3.8
    reflector + CCD.
C10 Maisoncelles.  Observer J.-F. Soulier.  0.30-m f/3.8 Newtonian reflector +
    CCD.
C65 Observatori Astronomic del Montsec.  Observers T. Santana-Ros, P. Gil.
    Measurer M. Micheli.  0.80-m f/9.6 Ritchey-Chretien + CCD.
F65 Haleakala-Faulkes Telescope North.  Observers J. D. Armstrong, J. O.
    Teagarden.  2.0-m f/10 reflector + CCD.
H06 iTelescope Observatory, Mayhill.  Observer H. Sato.  0.51-m f/6.8
    astrograph + CCD + f/4.5 focal reducer.
I41 Palomar Mountain--ZTF.  Observers B. T. Bolin, Z. T. F. Collaboration.
    Measurers B. T. Bolin, W.-H. Ip, Z.-Y. Lin, F. J. Masci.  1.2-m f/2.4
    Schmidt.
J13 La Palma-Liverpool Telescope.  Observer C. Copperwheat.  Measurers J. N.
    Purdum, B. T. Bolin.  2.0-m f/10 Ritchey-Chretien + CCD.
K74 Muensterschwarzach Observatory, Schwarzach.  Observer C. Gerhard.  0.30-m
    f/3.75 Newtonian reflector + CCD.
L01 Visnjan Observatory, Tican.  Observer K. Korlevic.  1.0-m f/2.9 reflector
    + CCD.
L06 Sormano 2 Observatory, Bellagio Via Lattea.  Observer G. Ventre.
    Measurers G. Ventre, P. Sicoli.  0.36-m Schmidt-Cassegrain + CCD.
N51 GROWTH India Telescope, IAO, Hanle.  Observers K. Sharma, H. Kumar, J.
    Stanzin, V. Bhalerao, G. C. Anupama, S. Barway, S. Joharle, R. Norbu.
    Measurers K. Sharma, B. T. Bolin.  0.70-m f/6.5 Corrected Dall-Kirkham +
    CCD.
Z08 Telescope Live, Oria.  Observers E. Guido, M. Rocchetto, E. Bryssinck, M.
    Fulle, G. Milani, C. Nassef, G. Savini, A. Valvasori.  0.7-m f/8 Ritchey-
    Chretien + CCD.
Z33 6ROADS Observatory 2, Nerpio.  Observers R. Reszelewski, M. Zolnowski, M.
    Gedek, K. Zukowski, T. Santana-Ros, L. Conversi, M. Micheli.  Measurers M.
    Micheli, R. Reszelewski.  0.4-m f/7 reflector + CCD, 0.4-m f/8 reflector +
    CCD.
Z99 Clixby Observatory, Cleethorpes.  Observer A. Mickleburgh.  0.36-m f/8
    Schmidt-Cassegrain + CCD.

Orbital elements:
    C/2021 E3 (ZTF)                                                             
Epoch 2022 June 30.0 TT = JDT 2459760.5                                         
T 2022 June 11.81547 TT                                 Rudenko                 
q   1.7774738            (2000.0)            P               Q                  
z  -0.0005034      Peri.  228.83874     -0.11527430     -0.43249398             
 +/-0.0002234      Node   104.46190     -0.37434517     +0.85277984             
e   1.0008948      Incl.  112.55681     -0.92009648     -0.29277209             
>From 88 observations 2021 Mar. 9-May 5, mean residual 0".5.                     
                                                                                
    C/2021 E3 (ZTF)                                                             
Epoch 2020 Dec. 17.0 TT = JDT 2459200.5                                         
T 2022 June 11.94298 TT                                 Rudenko                 
q   1.7774210            (2000.0)            P               Q                  
z  -0.0001769      Peri.  228.85055     -0.11571254     -0.43246946             
 +/-0.0002234      Node   104.44827     -0.37421775     +0.85288711             
e   1.0003144      Incl.  112.57216     -0.92009330     -0.29249572             
>From 88 observations 2021 Mar. 9-May 5, mean residual 0".5.                     
                                                                                
Ephemeris:
Date    TT    R. A. (2000) Decl.     Delta      r    Elong.  Phase   m1    m2
2021 04 06    20 57 30.8 +32 29 03   5.4936  5.0977    61.8    10.0  19.3
...
2021 04 21    21 00 55.0 +33 40 32   5.2229  4.9668    69.8    10.9  19.1
...
2021 04 29    21 01 33.9 +34 22 00   5.0688  4.8967    74.5    11.4  18.9
...
2021 05 05    21 01 26.1 +34 53 54   4.9499  4.8440    78.1    11.8  18.8
2021 05 06    21 01 21.5 +34 59 15   4.9298  4.8352    78.7    11.8  18.8
2021 05 07    21 01 15.8 +35 04 36   4.9097  4.8263    79.4    11.9  18.8
...
2021 05 13    21 00 20.2 +35 36 35   4.7881  4.7734    83.1    12.1  18.7
...
2021 05 21    20 58 04.2 +36 18 03   4.6241  4.7027    88.2    12.4  18.5
...
2021 06 05    20 50 17.2 +37 26 15   4.3176  4.5696    97.9    12.7  18.3

M. P. C. Staff               (C) Copyright 2021 MPC           M.P.E.C. 2021-J71




More information about the Iaude mailing list